EA3CY Weather Reports


time (UTC)temp
C
wind
direction
speed
KPH
gust
KPH
rain 1hr
cm
rain 24hr
cm
rain mn
cm
humidity
%
barometer
mb
20260510113346 22 157 3.2 14.5 0.00 4.60 0.03 59 1013.8
20260510112831 22 170 9.7 14.5 0.00 4.60 0.03 59 1013.8
20260510112342 21 158 3.2 14.5 0.00 4.60 0.03 64 1013.8
20260510111847 21 102 1.6 14.5 0.00 4.60 0.03 70 1013.9
20260510111340 21 70 4.8 12.9 0.00 4.60 0.03 71 1014.0
20260510110847 21 76 4.8 12.9 0.00 4.60 0.03 71 1014.1
20260510110340 21 134 4.8 14.5 0.00 4.60 0.03 70 1014.2
20260510105839 21 80 3.2 14.5 0.00 4.80 0.03 70 1014.2
20260510105332 21 146 3.2 11.3 0.00 4.80 0.03 71 1014.2
20260510104838 21 124 6.4 12.9 0.00 4.80 0.03 70 1014.3
20260510104331 20 86 3.2 11.3 0.00 4.80 0.03 70 1014.3
20260510103836 20 105 0.0 8.0 0.00 4.80 0.03 71 1014.4
20260510103347 20 73 1.6 8.0 0.00 4.80 0.03 72 1014.4
20260510102833 20 136 0.0 12.9 0.00 4.80 0.03 72 1014.4
20260510102343 20 85 0.0 12.9 0.00 4.80 0.03 74 1014.5
20260510101846 20 62 4.8 11.3 0.00 4.80 0.03 74 1014.5
20260510101337 20 105 4.8 12.9 0.00 4.80 0.03 74 1014.7
20260510095836 20 152 4.8 14.5 0.00 4.80 0.03 71 1014.6
20260510095329 20 128 6.4 14.5 0.00 4.80 0.03 71 1014.6
20260510094837 20 171 3.2 8.0 0.00 4.80 0.03 69 1014.5
20260510094333 20 194 0.0 0.0 0.00 4.80 0.03 70 1014.6
20260510093331 20 218 0.0 0.0 0.00 4.80 0.03 72 1014.6
20260510092835 19 218 0.0 0.0 0.00 4.80 0.03 73 1014.7
20260510092349 19 218 0.0 0.0 0.00 4.80 0.03 74 1014.7
20260510091832 19 218 0.0 0.0 0.00 4.80 0.03 73 1014.7
20260510091343 19 218 0.0 0.0 0.00 4.80 0.03 74 1014.7
20260510090847 19 218 0.0 0.0 0.00 4.80 0.03 74 1014.6
20260510090341 19 219 0.0 0.0 0.00 4.80 0.03 74 1014.6
20260510085839 19 219 0.0 0.0 0.00 4.80 0.03 73 1014.5
20260510085330 19 218 0.0 0.0 0.00 4.80 0.03 73 1014.6
20260510084329 18 221 0.0 0.0 0.00 4.80 0.03 73 1014.6
20260510083329 18 227 0.0 0.0 0.00 4.80 0.03 73 1014.6
20260510082837 18 227 0.0 0.0 0.00 4.80 0.03 73 1014.6
20260510082330 18 227 0.0 0.0 0.00 4.80 0.03 74 1014.5
20260510081837 18 234 0.0 0.0 0.00 4.80 0.03 74 1014.6
20260510081347 18 234 0.0 0.0 0.00 4.80 0.03 74 1014.6
20260510080831 18 234 0.0 0.0 0.00 4.80 0.03 74 1014.7
20260510080341 18 234 0.0 0.0 0.00 4.80 0.03 74 1014.7
20260510075840 18 234 0.0 0.0 0.00 4.80 0.03 74 1014.7
20260510075331 18 234 0.0 0.0 0.00 4.80 0.03 74 1014.7
20260510074835 17 235 0.0 0.0 0.00 4.80 0.03 75 1014.6
20260510071832 16 235 0.0 0.0 0.00 4.80 0.03 83 1014.6
20260510070833 16 235 0.0 0.0 0.00 4.80 0.03 82 1014.5
20260510070348 16 235 0.0 0.0 0.00 4.80 0.03 81 1014.5
20260510065843 16 286 0.0 0.0 0.00 4.80 0.03 82 1014.4
20260510065337 16 286 0.0 0.0 0.00 4.80 0.03 83 1014.3
20260510064844 16 287 0.0 0.0 0.00 4.80 0.03 83 1014.3
20260510064336 15 287 0.0 0.0 0.00 4.80 0.03 84 1014.2
20260510063336 15 287 0.0 6.4 0.00 4.80 0.03 85 1014.2
20260510062845 15 288 3.2 8.0 0.00 4.80 0.03 86 1014.3
20260510062337 15 290 1.6 8.0 0.00 4.80 0.03 87 1014.2
20260510061843 15 290 0.0 4.8 0.00 4.80 0.03 88 1014.2
20260510061333 14 292 0.0 4.8 0.00 4.80 0.03 89 1014.2
20260510060839 14 291 0.0 3.2 0.00 4.80 0.03 90 1014.1
20260510060350 13 288 0.0 3.2 0.00 4.80 0.03 90 1014.1
20260510055847 13 281 0.0 8.0 0.00 4.80 0.03 90 1014.1
20260510055337 13 281 0.0 8.0 0.00 4.80 0.03 90 1014.1
20260510054845 13 277 4.8 8.0 0.00 4.80 0.03 90 1014.1
20260510053843 13 290 3.2 9.7 0.00 4.80 0.03 91 1014.0
20260510053333 13 298 4.8 9.7 0.00 4.80 0.03 91 1014.0
20260510052838 13 283 3.2 8.0 0.00 4.80 0.03 91 1013.9
20260510052350 13 285 3.2 8.0 0.00 4.80 0.03 91 1014.0
20260510051836 13 293 1.6 4.8 0.00 4.80 0.03 92 1014.1
20260510051347 13 301 3.2 4.8 0.00 4.80 0.03 92 1014.0
20260510050341 13 317 0.0 0.0 0.00 4.80 0.03 92 1013.9
20260510045836 13 317 0.0 0.0 0.00 4.80 0.03 92 1013.9
20260510045330 13 318 0.0 0.0 0.00 4.80 0.03 92 1013.8
20260510044838 13 318 0.0 0.0 0.00 4.80 0.03 92 1013.9
20260510044333 13 317 0.0 0.0 0.00 4.80 0.03 92 1013.9
20260510043839 13 317 0.0 0.0 0.00 4.80 0.03 92 1013.9
20260510043331 13 317 0.0 0.0 0.00 4.80 0.03 92 1013.9
20260510042839 13 317 0.0 0.0 0.00 4.80 0.03 93 1014.0
20260510042331 13 317 0.0 0.0 0.00 4.80 0.03 92 1013.9
20260510040834 13 317 0.0 0.0 0.00 4.80 0.03 92 1013.9
20260510035337 13 317 0.0 0.0 0.00 4.80 0.03 92 1013.8
20260510034841 13 317 0.0 0.0 0.00 4.80 0.03 92 1013.8
20260510034332 13 317 0.0 0.0 0.00 4.80 0.03 92 1013.8
20260510033839 13 317 0.0 0.0 0.00 4.80 0.03 92 1013.9
20260510033350 13 317 0.0 0.0 0.00 4.80 0.03 93 1013.9
20260510032836 13 317 0.0 0.0 0.00 4.80 0.03 92 1013.9
20260510032348 13 317 0.0 0.0 0.00 4.80 0.03 93 1013.9
20260510031831 13 317 0.0 0.0 0.00 4.80 0.03 93 1013.9
20260510030347 13 317 0.0 0.0 0.10 4.80 0.03 93 1014.1
20260510025844 13 317 0.0 0.0 0.10 4.80 0.03 93 1014.0
20260510025335 13 317 0.0 0.0 0.10 4.80 0.03 93 1014.0
20260510024843 13 317 0.0 0.0 0.10 4.80 0.03 93 1014.0
20260510024336 13 317 0.0 0.0 0.10 4.80 0.03 93 1014.0
20260510023337 13 317 0.0 0.0 0.10 4.80 0.03 93 1014.1
20260510022842 13 317 0.0 0.0 0.10 4.80 0.03 93 1014.1
20260510022333 13 317 0.0 0.0 0.10 4.80 0.03 93 1014.1
20260510021840 13 317 0.0 0.0 0.10 4.80 0.03 93 1014.1
20260510021350 14 317 0.0 0.0 0.10 4.80 0.03 93 1014.2
20260510020833 14 317 0.0 0.0 0.10 4.80 0.03 93 1014.2
20260510020344 14 317 0.0 0.0 0.00 4.70 0.00 93 1014.2
20260510015843 14 317 0.0 0.0 0.00 4.70 0.00 93 1014.2
20260510015336 14 317 0.0 0.0 0.00 4.70 0.00 93 1014.0
20260510014336 14 317 0.0 0.0 0.00 4.70 0.00 93 1014.3
20260510013842 14 317 0.0 0.0 0.00 4.70 0.00 93 1014.3
20260510013333 14 317 0.0 0.0 0.00 4.70 0.00 93 1014.3
20260510012839 14 317 0.0 0.0 0.00 4.70 0.00 93 1014.3
20260510012330 14 317 0.0 0.0 0.00 4.70 0.00 93 1014.4
20260510011838 14 317 0.0 0.0 0.00 4.70 0.00 93 1014.5
20260510011350 14 317 0.0 0.0 0.00 4.70 0.00 93 1014.4
20260510010836 14 317 0.0 0.0 0.00 4.70 0.00 93 1014.5
20260510010347 14 317 0.0 0.0 0.00 4.70 0.00 93 1014.4
20260510005838 14 317 0.0 0.0 0.00 4.70 0.00 93 1014.4
20260510004838 14 317 0.0 0.0 0.00 4.70 0.00 94 1014.7
20260510002841 14 317 0.0 0.0 0.00 4.70 0.00 94 1014.7
20260510002333 14 317 0.0 0.0 0.00 4.70 0.00 94 1014.8
20260510001832 14 317 0.0 0.0 0.00 4.70 0.00 94 1014.7
20260510000832 14 317 0.0 0.0 0.00 4.70 0.00 94 1014.8
20260510000343 14 317 0.0 0.0 0.00 4.70 0.00 94 1014.9
20260509235840 14 317 0.0 0.0 0.00 4.70 0.00 94 1015.0
20260509235333 14 317 0.0 0.0 0.00 4.70 0.00 94 1015.0
20260509234332 14 317 0.0 0.0 0.00 4.70 0.00 94 1014.9
20260509233839 14 317 0.0 0.0 0.00 4.70 0.00 94 1014.9
20260509233350 14 317 0.0 0.0 0.00 4.70 0.00 94 1014.9
20260509232833 14 317 0.0 0.0 0.00 4.70 0.00 94 1014.9
20260509232329 14 317 0.0 0.0 0.00 4.70 0.00 94 1015.0
20260509231838 14 317 0.0 0.0 0.00 4.70 0.00 93 1015.0
20260509231329 14 317 0.0 0.0 0.00 4.70 0.00 93 1015.1
20260509230835 15 317 0.0 0.0 0.00 4.70 0.00 93 1015.1
20260509230330 15 317 0.0 0.0 0.00 4.70 0.00 93 1015.1
20260509225845 15 317 0.0 0.0 0.00 4.70 0.00 93 1015.2
20260509224846 15 317 0.0 0.0 0.00 4.70 0.00 93 1015.2
20260509224336 15 317 0.0 0.0 0.00 4.70 0.00 93 1015.2
20260509223840 15 317 0.0 0.0 0.00 4.70 0.00 93 1015.2
20260509223331 15 317 0.0 0.0 0.00 4.70 0.00 93 1015.2
20260509222836 15 317 0.0 0.0 0.00 4.70 0.00 93 1015.2
20260509222330 15 317 0.0 0.0 0.00 4.70 0.00 93 1015.1
20260509221330 15 317 0.0 0.0 0.00 4.70 0.00 93 1015.1
20260509220348 15 317 0.0 0.0 0.00 4.70 0.00 93 1015.1
20260509215333 15 317 0.0 0.0 0.00 4.70 0.94 93 1015.1
20260509214838 15 317 0.0 0.0 0.00 4.70 0.94 93 1015.1
20260509214331 15 317 0.0 0.0 0.00 4.70 0.94 93 1015.1
20260509213334 15 317 0.0 0.0 0.00 4.70 0.94 93 1015.3
20260509212840 15 317 0.0 0.0 0.00 4.70 0.94 93 1015.3
20260509212332 15 317 0.0 0.0 0.00 4.70 0.94 93 1015.3
20260509211838 15 317 0.0 0.0 0.00 4.70 0.94 93 1015.2
20260509211329 15 317 0.0 0.0 0.00 4.70 0.94 92 1015.2
20260509210329 15 317 0.0 0.0 0.00 4.70 0.94 93 1015.3
20260509205845 15 317 0.0 0.0 0.00 4.70 0.94 92 1015.2
20260509205338 15 317 0.0 0.0 0.00 4.70 0.94 92 1015.2
20260509204843 15 317 0.0 0.0 0.00 4.70 0.94 92 1015.2
20260509203844 15 317 0.0 0.0 0.00 4.70 0.94 92 1015.0
20260509203336 15 317 0.0 0.0 0.00 4.70 0.94 92 1014.9
20260509202842 15 317 0.0 0.0 0.00 4.70 0.94 92 1014.8
20260509202333 15 317 0.0 0.0 0.00 4.70 0.94 92 1014.8
20260509201837 15 317 0.0 0.0 0.00 4.70 0.94 92 1014.8
20260509201329 15 317 0.0 0.0 0.00 4.70 0.94 91 1014.8
20260509200831 15 317 0.0 0.0 0.00 4.70 0.94 91 1014.8
20260509200342 15 318 0.0 0.0 0.00 4.70 0.94 91 1014.7
20260509195333 15 35 0.0 0.0 0.00 4.70 0.94 91 1014.4
20260509194838 15 35 0.0 0.0 0.00 4.70 0.94 91 1014.3
20260509193836 15 35 0.0 0.0 0.00 4.70 0.94 90 1014.0
20260509193329 15 35 0.0 0.0 0.00 4.70 0.94 90 1014.0
20260509192833 15 35 0.0 0.0 0.00 4.70 0.94 90 1013.9
20260509192343 16 35 0.0 0.0 0.00 4.70 0.94 90 1013.8
20260509191832 16 35 0.0 0.0 0.00 4.70 0.94 90 1013.8
20260509191343 16 35 0.0 0.0 0.00 4.70 0.94 90 1013.7
20260509190829 16 35 0.0 0.0 0.00 4.70 0.94 89 1013.6
20260509190341 16 35 0.0 0.0 0.00 4.70 0.94 90 1013.4
20260509185838 16 35 0.0 0.0 0.00 4.70 0.94 90 1013.4
20260509185335 16 35 0.0 0.0 0.00 4.70 0.94 89 1013.3
20260509184842 16 35 0.0 0.0 0.00 4.70 0.94 89 1013.3
20260509184332 16 35 0.0 0.0 0.00 4.70 0.94 89 1013.3
20260509183837 16 35 0.0 0.0 0.00 4.70 0.94 89 1013.3
20260509182836 16 35 0.0 0.0 0.00 4.70 0.94 89 1013.4
20260509180838 16 35 0.0 0.0 0.00 4.70 0.94 89 1013.1
20260509180330 16 34 0.0 0.0 0.00 4.70 0.94 89 1013.1
20260509175847 16 34 0.0 0.0 0.00 4.70 0.94 89 1013.0
20260509175340 16 34 0.0 0.0 0.00 4.70 0.94 88 1013.0
20260509174845 16 34 0.0 3.2 0.00 4.70 0.94 89 1013.0
20260509174337 16 35 0.0 4.8 0.00 4.70 0.94 89 1012.9
20260509173844 16 35 1.6 9.7 0.00 4.70 0.94 89 1012.9
20260509173333 16 34 1.6 9.7 0.00 4.70 0.94 89 1012.8
20260509172837 16 52 1.6 6.4 0.00 4.70 0.94 88 1012.8
20260509172331 16 57 3.2 6.4 0.00 4.70 0.94 88 1012.7
20260509170838 16 48 0.0 0.0 0.00 4.70 0.94 89 1012.7
20260509170331 16 57 0.0 4.8 0.00 4.70 0.94 89 1012.7
20260509165339 16 28 0.0 4.8 0.00 4.70 0.94 90 1012.5
20260509164340 16 40 0.0 4.8 0.00 4.70 0.94 91 1012.5
20260509163342 16 44 1.6 8.0 0.00 4.70 0.94 91 1012.4
20260509162848 16 44 3.2 8.0 0.00 4.70 0.94 91 1012.4
20260509162338 16 34 1.6 8.0 0.00 4.70 0.94 92 1012.4
20260509161844 16 65 3.2 9.7 0.00 4.70 0.94 93 1012.3
20260509161335 15 59 3.2 16.1 0.00 4.70 0.94 93 1012.3
20260509160840 15 28 4.8 16.1 0.00 4.70 0.94 93 1012.3
20260509160331 16 45 4.8 11.3 0.00 4.70 0.94 93 1012.2
20260509155843 15 48 6.4 12.9 0.00 4.70 0.94 94 1012.1
20260509155334 15 63 4.8 17.7 0.10 4.70 0.94 94 1012.2
20260509154839 15 30 9.7 17.7 0.10 4.70 0.94 94 1012.0
20260509154331 15 47 6.4 14.5 0.10 4.70 0.94 94 1011.9
20260509153838 16 30 4.8 17.7 0.10 4.70 0.94 94 1011.7
20260509153330 16 26 4.8 19.3 0.20 4.70 0.94 94 1011.6
20260509152834 16 78 11.3 19.3 0.20 4.70 0.94 93 1011.5
20260509152346 16 65 9.7 19.3 0.30 4.70 0.94 93 1011.9
20260509151832 16 69 8.0 12.9 0.51 4.70 0.94 94 1012.5
20260509151345 16 82 4.8 8.0 0.79 4.70 0.94 94 1012.9
20260509150832 16 53 1.6 4.8 1.09 4.70 0.94 94 1013.1
20260509145844 16 275 0.0 1.6 1.50 4.70 0.94 94 1013.5
20260509145334 16 275 0.0 1.6 1.50 4.60 0.91 93 1013.7
20260509144841 16 275 0.0 3.2 1.60 4.60 0.91 93 1013.8
20260509144331 16 275 1.6 3.2 1.70 4.60 0.91 93 1013.8
20260509143839 16 279 0.0 3.2 1.70 4.60 0.91 93 1013.8
20260509143331 16 278 0.0 3.2 1.70 4.50 0.89 93 1013.8
20260509142837 16 277 1.6 3.2 1.80 4.50 0.89 93 1013.9
20260509142332 16 214 0.0 1.6 1.70 4.29 0.86 93 1014.0
20260509141330 16 213 0.0 1.6 1.30 3.91 0.79 92 1014.3
20260509140836 16 213 0.0 4.8 0.99 3.61 0.71 92 1014.4
20260509140346 16 213 1.6 11.3 0.79 3.40 0.69 92 1014.5
20260509135838 16 213 6.4 11.3 0.61 3.20 0.64 92 1014.6
20260509134840 16 217 1.6 6.4 0.41 3.00 0.61 91 1014.4
20260509134333 16 269 1.6 3.2 0.30 2.90 0.58 91 1014.3
20260509133840 16 92 0.0 1.6 0.20 2.79 0.56 91 1014.1
20260509133331 16 92 0.0 1.6 0.20 2.79 0.56 91 1014.1
20260509132838 16 92 0.0 1.6 0.10 2.69 0.53 91 1014.0
20260509132332 16 92 0.0 4.8 0.10 2.59 0.51 91 1013.8
20260509131837 16 92 0.0 4.8 0.10 2.59 0.51 91 1013.6
20260509130836 16 63 1.6 3.2 0.30 2.59 0.51 91 1013.3
20260509130346 16 59 0.0 4.8 0.41 2.59 0.51 91 1013.1
20260509125840 16 58 1.6 9.7 0.61 2.59 0.51 92 1012.8
20260509124332 16 7 9.7 19.3 1.19 2.59 0.51 92 1012.0
20260509123837 16 7 12.9 19.3 1.40 2.59 0.51 93 1011.9
20260509123348 16 35 8.0 17.7 1.70 2.59 0.51 92 1012.3
20260509122832 16 30 8.0 20.9 1.91 2.59 0.51 93 1012.7
20260509122343 16 32 11.3 20.9 1.91 2.49 0.51 93 1012.8
20260509121828 16 44 11.3 19.3 2.01 2.49 0.51 93 1013.0
20260509121340 16 36 9.7 24.1 2.01 2.39 0.48 93 1013.1
20260509120846 16 60 8.0 24.1 2.01 2.31 0.46 93 1013.0
20260509120339 16 31 8.0 19.3 2.01 2.21 0.43 93 1012.9
20260509115837 16 53 4.8 19.3 1.80 2.01 0.41 92 1012.8
20260509115330 16 11 6.4 19.3 1.70 1.80 0.36 92 1012.9
20260509114834 16 26 6.4 14.5 1.40 1.50 0.30 92 1013.3
20260509114345 16 23 8.0 12.9 1.40 1.40 0.28 92 1013.5
20260509113848 16 41 4.8 12.9 1.19 1.19 0.23 92 1013.7